1336348825587,2.19326
1336348885587,2.21957
1336348945587,2.21972
1336349005587,2.23892
1336349065587,2.23948
1336349125587,2.23651
1336349185587,2.19956
1336349245587,2.21956
1336349305587,2.21606
1336349365587,2.21663
1336349425587,2.23284
1336349485587,2.22166
1336349545587,2.21821
1336349605587,2.21759
1336349665587,2.20890
1336349725587,2.20272
1336349785587,2.24963
1336349845587,2.22783
1336349905587,2.22189
1336349965587,2.22997
1336350025587,2.22607
1336350085587,2.19670
1336350145587,2.20071
1336350205587,2.22694
1336350265587,2.21857
1336350325587,2.23354
1336350385587,2.19439
1336350445587,2.23283
1336350505587,2.22416
1336350565587,2.20832
1336350625587,2.21921
1336350685587,2.22053
1336350745587,2.23696
1336350805587,2.25033
1336350865587,2.23124
1336350925587,2.22620
1336350985587,2.23263
1336351045587,2.23829
1336351105587,2.22327
1336351165587,2.22911
1336351225587,2.22933
1336351285587,2.22948
1336351345587,2.24438
1336351405587,2.24839
1336351465587,2.25317
1336351525587,2.23762
1336351585587,2.23216
1336351645587,2.23396
1336351705587,2.23091
1336351765587,2.23672
1336351825587,2.25119
1336351885587,2.22936
1336351945587,2.23996
1336352005587,2.22431
1336352065587,2.24449
1336352125587,2.27000
1336352185587,2.23491
1336352245587,2.25685
1336352305587,2.26123
1336352365587,2.25839
1336352425598,2.24175
1336352485598,2.25007
1336352545598,2.26687
1336352605598,2.27282
1336352665598,2.25686
1336352725598,2.23973
1336352785598,2.26628
1336352845598,2.26687
1336352905598,2.25337
1336352965598,2.24956
1336353025598,2.25740
1336353085598,2.26702
1336353145598,2.26406
1336353205598,2.25482
1336353265598,2.28666
1336353325598,2.28269
1336353385598,2.25621
1336353445598,2.25858
1336353505598,2.29460
1336353565598,2.29120
1336353625598,2.28813
1336353685598,2.28152
1336353745598,2.29914
1336353805598,2.28409
1336353865598,2.28251
1336353925598,2.28925
1336353985598,2.27443
1336354045598,2.28196
1336354105598,2.30015
1336354165598,2.30003
1336354225598,2.29482
1336354285598,2.29334
1336354345598,2.30682
1336354405598,2.29703
1336354465598,2.29226
1336354525598,2.28908
1336354585598,2.29196
1336354645598,2.28896
1336354705598,2.30046
1336354765598,2.29604
1336354825598,2.28001
1336354885598,2.29845
1336354945598,2.29002
1336355005598,2.29638
1336355065598,2.30174
1336355125598,2.28658
1336355185598,2.28135
1336355245598,2.28323
1336355305598,2.27076
1336355365598,2.29253
1336355425598,2.27558
1336355485598,2.29115
1336355545598,2.28198
1336355605598,2.29609
1336355665598,2.27103
1336355725598,2.28961
1336355785598,2.26681
1336355845598,2.25376
1336355905598,2.25749
1336355965598,2.27182
1336356025609,2.26369
1336356085609,2.27785
1336356145609,2.28063
1336356205609,2.27262
1336356265609,2.26095
1336356325609,2.24824
1336356385609,2.28097
1336356445609,2.26840
1336356505609,2.18921
1336356565609,2.24161
1336356625609,2.25278
1336356685609,2.25763
1336356745609,2.25268
1336356805609,2.26322
1336356865609,2.25203
1336356925609,2.26767
1336356985609,2.24429
1336357045609,2.29586
1336357105609,2.27942
1336357165609,2.25899
1336357225609,2.26120
1336357285609,2.29472
1336357345609,2.29082
1336357405609,2.28738
1336357465609,2.27615
1336357525609,2.26689
1336357585609,2.26485
1336357645609,2.25972
1336357705609,2.25834
1336357765609,2.27448
1336357825609,2.27151
1336357885609,2.27078
1336357945609,2.25761
1336358005609,2.26752
1336358065609,2.26318
1336358125609,2.26411
1336358185609,2.26328
1336358245609,2.26666
1336358305609,2.29529
1336358365609,2.26858
1336358425609,2.27120
1336358485609,2.27392
1336358545609,2.28469
1336358605609,2.26708
1336358665609,2.27990
1336358725609,2.28190
1336358785609,2.29068
1336358845609,2.28090
1336358905609,2.27707
1336358965609,2.30316
1336359025609,2.31514
1336359085609,2.32745
1336359145609,2.32238
1336359205609,2.31399
1336359265609,2.32137
1336359325609,2.32818
1336359385609,2.34391
1336359445609,2.29705
1336359505609,2.31792
1336359565609,2.30306
1336359625619,2.31129
1336359685619,2.30589
1336359745619,2.33016
1336359805619,2.33484
1336359865619,2.32607
1336359925619,2.31874
1336359985619,2.31229
1336360045619,2.30769
1336360105619,2.34532
1336360165619,2.33298
1336360225619,2.32409
1336360285619,2.34268
1336360345619,2.33313
1336360405619,2.34113
1336360465619,2.35507
1336360525619,2.37515
1336360585619,2.33423
1336360645619,2.33618
1336360705619,2.32774
1336360765619,2.31798
1336360825619,2.33710
1336360885619,2.31836
1336360945619,2.33469
1336361005619,2.32081
1336361065619,2.30301
1336361125619,2.32263
1336361185619,2.31703
1336361245619,2.32216
1336361305619,2.31204
1336361365619,2.29926
1336361425619,2.31331
1336361485619,2.29411
1336361545619,2.29401
1336361605619,2.28769
1336361665619,2.28257
1336361725619,2.29769
1336361785619,2.26211
1336361845619,2.26903
1336361905619,2.27160
1336361965619,2.27535
1336362025619,2.27393
1336362085619,2.27537
1336362145619,2.24907
1336362205619,2.26783
1336362265619,2.25486
1336362325619,2.24350
1336362385619,2.24753
1336362445619,2.23883
1336362505619,2.26652
1336362565619,2.44075
1336362625619,2.25838
1336362685619,2.23078
1336362745619,2.25803
1336362805619,2.25333
1336362865619,2.25006
1336362925619,2.25252
1336362985619,2.24385
1336363045619,2.22246
1336363105619,2.23413
1336363165619,2.25780
1336363225630,2.26373
1336363285630,2.22216
1336363345630,2.25862
1336363405630,2.23116
1336363465630,2.28133
1336363525630,2.23958
1336363585630,2.21073
1336363645630,2.22969
1336363705630,2.23639
1336363765630,2.24707
1336363825630,2.23516
1336363885630,2.22431
1336363945630,2.24224
1336364005630,2.25040
1336364065630,2.24344
1336364125630,2.21993
1336364185630,2.23960
1336364245630,2.23691
1336364305630,2.22975
1336364365630,2.26293
1336364425630,2.24259
1336364485630,2.26286
1336364545630,2.25968
1336364605630,2.25637
1336364665630,2.25039
1336364725630,2.24675
1336364785630,2.25890
1336364845630,2.25836
1336364905630,2.23665
1336364965630,2.27184
1336365025630,2.23329
1336365085630,2.24203
1336365145630,2.24792
1336365205630,2.23905
1336365265630,2.23834
1336365325630,2.22437
1336365385630,2.24736
1336365445630,2.26247
1336365505630,2.24284
1336365565630,2.26520
1336365625630,2.22418
1336365685630,2.23531
1336365745630,2.25836
1336365805630,2.25421
1336365865630,2.25264
1336365925630,2.22212
1336365985630,2.23927
1336366045630,2.24276
1336366105630,2.23963
1336366165630,2.22768
1336366225630,2.23313
1336366285630,2.21852
1336366345630,2.24340
1336366405630,2.25692
1336366465630,2.25150
1336366525630,2.23148
1336366585630,2.26861
1336366645630,2.27035
1336366705630,2.27405
1336366765630,2.26556
1336366825640,2.23715
1336366885640,2.25462
1336366945640,2.23968
1336367005640,2.24921
1336367065640,2.24912
1336367125640,2.24174
1336367185640,2.26492
1336367245640,2.22170
1336367305640,2.25374
1336367365640,2.23243
1336367425640,2.25106
1336367485640,2.25271
1336367545640,2.26555
1336367605640,2.27089
1336367665640,2.25470
1336367725640,2.27602
1336367785640,2.25718
1336367845640,2.25727
1336367905640,2.44795
1336367965640,2.26492
1336368025640,2.26239
1336368085640,2.30001
1336368145640,2.25585
1336368205640,2.28422
1336368265640,2.25967
1336368325640,2.25073
1336368385640,2.23098
1336368445640,2.26408
1336368505640,2.27345
1336368565640,2.26313
1336368625640,2.26613
1336368685640,2.27777
1336368745640,2.23999
1336368805640,2.27149
1336368865640,2.26788
1336368925640,2.26272
1336368985640,2.26627
1336369045640,2.26453
1336369105640,2.25707
1336369165640,2.27283
1336369225640,2.27070
1336369285640,2.26056
1336369345640,2.25933
1336369405640,2.26389
1336369465640,2.27864
1336369525640,2.26099
1336369585640,2.26097
1336369645640,2.26621
1336369705640,2.24393
1336369765640,2.28795
1336369825640,2.29006
1336369885640,2.25081
1336369945640,2.20362
1336370005640,2.26266
1336370065640,2.24621
1336370125640,2.25140
1336370185640,2.26871
1336370245640,2.27455
1336370305640,2.19558
1336370365640,2.14569
1336370425650,2.23771
1336370485650,2.25068
1336370545650,2.26478
1336370605650,2.27045
1336370665650,2.26512
1336370725650,2.26154
1336370785650,2.25823
1336370845650,2.26122
1336370905650,2.24428
1336370965650,2.22197
1336371025650,2.27422
1336371085650,2.26230
1336371145650,2.26244
1336371205650,2.25808
1336371265650,2.27347
1336371325650,2.24274
1336371385650,2.23921
1336371445650,2.25404
1336371505650,2.29661
1336371565650,2.27804
1336371625650,2.25736
1336371685650,2.28402
1336371745650,2.26206
1336371805650,2.25487
1336371865650,2.24482
1336371925650,2.25154
1336371985650,2.26211
1336372045650,2.27521
1336372105650,2.26055
1336372165650,2.25257
1336372225650,2.26800
1336372285650,2.23138
1336372345650,2.25898
1336372405650,2.25414
1336372465650,2.25633
1336372525650,2.23887
1336372585650,2.24133
1336372645650,2.24209
1336372705650,2.23722
1336372765650,2.24794
1336372825650,2.24520
1336372885650,2.21770
1336372945650,2.23089
1336373005650,2.24113
1336373065650,2.23208
1336373125650,2.23038
1336373185650,2.20730
1336373245650,2.24415
1336373305650,2.21685
1336373365650,2.24082
1336373425650,2.22608
1336373485650,2.23723
1336373545650,2.25114
1336373605650,2.24571
1336373665650,2.25792
1336373725650,2.22154
1336373785650,2.24494
1336373845650,2.25308
1336373905650,2.25155
1336373965650,2.25020
1336374025661,2.26362
1336374085661,2.27353
1336374145661,2.27089
1336374205661,2.27514
1336374265661,2.30514
1336374325661,2.29453
1336374385661,2.28367
1336374445661,2.26727
1336374505661,2.25943
1336374565661,2.24591
1336374625661,2.26795
1336374685661,2.24511
1336374745661,2.25624
1336374805661,2.23091
1336374865661,2.23505
1336374925661,2.24119
1336374985661,2.23439
1336375045661,2.24964
1336375105661,2.24199
1336375165661,2.24303
1336375225661,2.23497
1336375285661,2.23037
1336375345661,2.21691
1336375405661,2.25752
1336375465661,2.22653
1336375525661,2.22538
1336375585661,2.24588
1336375645661,2.22222
1336375705661,2.23943
1336375765661,2.23426
1336375825661,2.22475
1336375885661,2.25670
1336375945661,2.24450
1336376005661,2.24201
1336376065661,2.21852
1336376125661,2.22665
1336376185661,2.22896
1336376245661,2.24439
1336376305661,2.23906
1336376365661,2.23116
1336376425661,2.22353
1336376485661,2.22017
1336376545661,2.22483
1336376605661,2.22013
1336376665661,2.20483
1336376725661,2.21995
1336376785661,2.20795
1336376845661,2.21483
1336376905661,2.20688
1336376965661,2.19395
1336377025661,2.22787
1336377085661,2.21035
1336377145661,2.24067
1336377205661,2.19956
1336377265661,2.21156
1336377325661,2.21180
1336377385661,2.21210
1336377445661,2.22022
1336377505661,2.21801
1336377565661,2.21261
1336377625671,2.22757
1336377685671,2.21845
1336377745671,2.21081
1336377805671,2.21521
1336377865671,2.22596
1336377925671,2.23057
1336377985671,2.22142
1336378045671,2.22830
1336378105671,2.20315
1336378165671,2.20747
1336378225671,2.23485
1336378285671,2.24073
1336378345671,2.23731
1336378405671,2.21913
1336378465671,2.24638
1336378525671,2.24530
1336378585671,2.23318
1336378645671,2.24434
1336378705671,2.25250
1336378765671,2.22954
1336378825671,2.24830
1336378885671,2.25992
1336378945671,2.23901
1336379005671,2.26438
1336379065671,2.26104
1336379125671,2.25260
1336379185671,2.26149
1336379245671,2.24133
1336379305671,2.26528
1336379365671,2.26212
1336379425671,2.27493
1336379485671,2.26016
1336379545671,2.25493
1336379605671,2.25019
1336379665671,2.28130
1336379725671,2.26862
1336379785671,2.25803
1336379845671,2.26479
1336379905671,2.28015
1336379965671,2.25444
1336380025671,2.25939
1336380085671,2.27065
1336380145671,2.27247
1336380205671,2.29711
1336380265671,2.30050
1336380325671,2.26794
1336380385671,2.28722
1336380445671,2.26365
1336380505671,2.28941
1336380565671,2.25833
1336380625671,2.24190
1336380685671,2.25455
1336380745671,2.28280
1336380805671,2.25178
1336380865671,2.27936
1336380925671,2.29209
1336380985671,2.29248
1336381045671,2.28903
1336381105671,2.27508
1336381165671,2.26462
1336381225681,2.27408
1336381285681,2.27466
1336381345681,2.26102
1336381405681,2.26982
1336381465681,2.29398
1336381525681,2.26952
1336381585681,2.27166
1336381645681,2.25885
1336381705681,2.25726
1336381765681,2.25567
1336381825681,2.26915
1336381885681,2.26106
1336381945681,2.28280
1336382005681,2.27296
1336382065681,2.28917
1336382125681,2.28182
1336382185681,2.26034
1336382245681,2.23764
1336382305681,2.26972
1336382365681,2.28171
1336382425681,2.27920
1336382485681,2.26029
1336382545681,2.25233
1336382605681,2.25892
1336382665681,2.24714
1336382725681,2.24363
1336382785681,2.24834
1336382845681,2.24220
1336382905681,2.25632
1336382965681,2.24956
1336383025681,2.24114
1336383085681,2.25801
1336383145681,2.23663
1336383205681,2.25728
1336383265681,2.25139
1336383325681,2.25181
1336383385681,2.22340
1336383445681,2.25310
1336383505681,2.23500
1336383565681,2.25713
1336383625681,2.24621
1336383685681,2.24290
1336383745681,2.25889
1336383805681,2.25413
1336383865681,2.26282
1336383925681,2.27846
1336383985681,2.12259
1336384045681,2.22550
1336384105681,2.24422
1336384165681,2.26047
1336384225681,2.26434
1336384285681,2.25603
1336384345681,2.25044
1336384405681,2.23756
1336384465681,2.26629
1336384525681,2.25980
1336384585681,2.26240
1336384645681,2.25048
1336384705681,2.31352
1336384765681,2.25567
1336384825691,2.25925
1336384885691,2.25161
1336384945691,2.23735
1336385005691,2.24170
1336385065691,2.23058
1336385125691,2.22278
1336385185691,2.24393
1336385245691,2.23383
1336385305691,2.24047
1336385365691,2.24201
1336385425691,2.27717
1336385485691,2.24954
1336385545691,2.24618
1336385605691,2.24684
1336385665691,2.28078
1336385725691,2.25431
1336385785691,2.25481
1336385845691,2.23719
1336385905691,2.36362
1336385965691,2.25428
1336386025691,2.25572
1336386085691,2.24228
1336386145691,2.25300
1336386205691,2.25052
1336386265691,2.24963
1336386325691,2.24579
1336386385691,2.22269
1336386445691,2.30015
1336386505691,2.26485
1336386565691,2.25418
1336386625691,2.23010
1336386685691,2.28465
1336386745691,2.28819
1336386805691,2.29561
1336386865691,2.29864
1336386925691,2.29191
1336386985691,2.28881
1336387045691,2.29205
1336387105691,2.29005
1336387165691,2.28066
1336387225691,2.27267
1336387285691,2.26080
1336387345691,2.27385
1336387405691,2.26263
1336387465691,2.27363
1336387525691,2.28281
1336387585691,2.27296
1336387645691,2.25558
1336387705691,2.24412
1336387765691,2.26589
1336387825691,2.26155
1336387885691,2.28742
1336387945691,2.26218
1336388005691,2.29437
1336388065691,2.23707
1336388125691,2.27563
1336388185691,2.26884
1336388245691,2.26847
1336388305691,2.28190
1336388365691,2.24828
1336388425701,2.26702
1336388485701,2.27885
1336388545701,2.27951
1336388605701,2.27707
1336388665701,2.26481
1336388725701,2.27348
1336388785701,2.27705
1336388845701,2.25966
1336388905701,2.30238
1336388965701,2.29982
1336389025701,2.33016
1336389085701,2.29908
1336389145701,2.30700
1336389205701,2.30001
1336389265701,2.26588
1336389325701,2.26418
1336389385701,2.29472
1336389445701,2.27711
1336389505701,2.25540
1336389565701,2.26716
1336389625701,2.26176
1336389685701,2.26302
1336389745701,2.28292
1336389805701,2.24461
1336389865701,2.26248
1336389925701,2.23902
1336389985701,2.22768
1336390045701,2.24823
1336390105701,2.26274
1336390165701,2.26295
1336390225701,2.26031
1336390285701,2.24161
1336390345701,2.24915
1336390405701,2.23752
1336390465701,2.23686
1336390525701,2.24434
1336390585701,2.25979
1336390645701,2.23418
1336390705701,2.25179
1336390765701,2.22768
1336390825701,2.25336
1336390885701,2.24598
1336390945701,2.22898
1336391005701,2.24138
1336391065701,2.25319
1336391125701,2.27524
1336391185701,2.23954
1336391245701,2.24770
1336391305701,2.25488
1336391365701,2.25179
1336391425701,2.25408
1336391485701,2.25331
1336391545701,2.25827
1336391605701,2.23979
1336391665701,2.23915
1336391725701,2.26746
1336391785701,2.25929
1336391845701,2.24427
1336391905701,2.25898
1336391965701,2.25353
1336392025711,2.23479
1336392085711,2.25289
1336392145711,2.24886
1336392205711,2.25904
1336392265711,2.26000
1336392325711,2.25489
1336392385711,2.26080
1336392445711,2.24019
1336392505711,2.26204
1336392565711,2.26550
1336392625711,2.24457
1336392685711,2.26196
1336392745711,2.26667
1336392805711,2.26575
1336392865711,2.23565
1336392925711,2.25778
1336392985711,2.26170
1336393045711,2.24237
1336393105711,2.26242
1336393165711,2.25164
1336393225711,2.25389
1336393285711,2.26329
1336393345711,2.26579
1336393405711,2.27476
1336393465711,2.26752
1336393525711,2.24732
1336393585711,2.27321
1336393645711,2.23625
1336393705711,2.25209
1336393765711,2.15112
1336393825711,2.24682
1336393885711,2.23956
1336393945711,2.24938
1336394005711,2.26135
1336394065711,2.25332
1336394125711,2.25042
1336394185711,2.25151
1336394245711,2.24885
1336394305711,2.25404
1336394365711,2.29197
1336394425711,2.27261
1336394485711,2.26602
1336394545711,2.28541
1336394605711,2.28151
1336394665711,2.27486
1336394725711,2.26156
1336394785711,2.29100
1336394845711,2.26708
1336394905711,2.27882
1336394965711,2.25844
1336395025711,2.24635
1336395085711,2.25549
1336395145711,2.27726
1336395205711,2.25075
1336395265711,2.25853
1336395325711,2.26163
1336395385711,2.27736
1336395445711,2.27685
1336395505711,2.25632
1336395565711,2.27347
1336395625721,2.25840
1336395685721,2.27310
1336395745721,2.26968
1336395805721,2.27500
1336395865721,2.28160
1336395925721,2.25576
1336395985721,2.27714
1336396045721,2.29616
1336396105721,2.26434
1336396165721,2.29471
1336396225721,2.26790
1336396285721,2.22854
1336396825721,2.27755
1336396885721,1.94925
1336396945721,2.26815
1336397005721,2.28233
1336397065721,2.28410
1336397125721,2.29363
1336397185721,2.27173
1336397245721,2.26870
1336397305721,2.26876
1336397365721,2.26287
1336397425721,2.29746
1336397485721,2.27496
1336397545721,2.29517
1336397605721,2.30019
1336397665721,2.29635
1336397725721,2.27640
1336397785721,2.30289
1336397845721,2.28046
1336397905721,2.30497
1336397965721,2.29570
1336398025721,2.31327
1336398085721,2.29469
1336398145721,2.28900
1336398205721,2.27043
1336398265721,2.27863
1336398325721,2.29033
1336398385721,2.29611
1336398445721,2.30563
1336398505721,2.30895
1336398565721,2.28268
1336398625721,2.26990
1336398685721,2.29192
1336398745721,2.31038
1336398805721,2.30164
1336398865721,2.30657
1336398925721,2.29245
1336398985721,2.28583
1336399045721,2.30363
1336399105721,2.29294
1336399165721,2.31784
1336399225731,2.29754
1336399285731,2.29260
1336399345731,2.29759
1336399405731,2.30009
1336399465731,2.29088
1336399525731,2.32723
1336399585731,2.31839
1336399645731,2.32694
1336399705731,2.32554
1336399765731,2.34685
1336399825731,2.33702
1336399885731,2.36352
1336399945731,2.34382
1336400005731,2.35935
1336400065731,2.35364
1336400125731,2.36221
1336400185731,2.42037
1336400245731,2.38352
1336400305731,2.39129
1336400365731,2.41238
1336400425731,2.40580
1336400485731,2.40349
1336400545731,2.42809
1336400605731,2.41255
1336400665731,2.41552
1336400725731,2.43561
1336400785731,2.46381
1336400845731,2.45692
1336400905731,2.46086
1336400965731,2.45509
1336401025731,2.49026
1336401085731,2.49572
1336401145731,2.52835
1336401205731,2.54687
1336401265731,2.56390
1336401325731,2.56925
1336401385731,2.61998
1336401445731,2.64486
1336401505731,2.67289
1336401565731,2.67240
1336401625731,2.70979
1336401685731,2.69159
1336401745731,2.70195
1336401805731,2.68970
1336401865731,2.62079
1336401925731,2.59475
1336401985731,2.61875
1336402045731,2.58982
1336402105731,2.60052
1336402165731,2.59657
1336402225731,2.59071
1336402285731,2.60686
1336402345731,2.56326
1336402405731,2.60232
1336402465731,2.57041
1336402525731,2.54719
1336402585731,2.54813
1336402645731,2.53008
1336402705731,2.58991
1336402765731,2.54161
1336402825741,2.53786
1336402885741,2.54974
1336402945741,2.53912
1336403005741,2.62431
1336403065741,2.51156
1336403125741,2.51899
1336403185741,2.50377
1336403245741,2.48793
1336403305741,2.51267
1336403365741,2.50776
1336403425741,2.49973
1336403485741,2.47419
1336403545741,2.48322
1336403605741,2.47718
1336403665741,2.45636
1336403725741,2.47352
1336403785741,2.46477
1336403845741,2.43263
1336403905741,2.43442
1336403965741,2.45089
1336404025741,2.46333
1336404085741,2.44180
1336404145741,2.45188
1336404205741,2.41272
1336404265741,2.40097
1336404325741,2.39518
1336404385741,2.42994
1336404445741,2.41569
1336404505741,2.40371
1336404565741,2.39738
1336404625741,2.38308
1336404685741,2.39273
1336404745741,2.38900
1336404805741,2.39166
1336404865741,2.39686
1336404925741,2.37732
1336404985741,2.37175
1336405045741,2.36275
1336405105741,2.35460
1336405165741,2.37516
1336405225741,2.35392
1336405285741,2.34759
1336405345741,2.35744
1336405405741,2.34424
1336405465741,2.34226
1336405525741,2.32911
1336405585741,2.33788
1336405645741,2.33007
1336405705741,2.31768
1336405765741,2.33520
1336405825741,2.34607
1336405885741,2.36773
1336405945741,2.32894
1336406005741,2.33252
1336406065741,2.33218
1336406125741,2.33616
1336406185741,2.31431
1336406245741,2.31058
1336406305741,2.31523
1336406365741,2.32501
1336406425751,2.30677
1336406485751,2.31882
1336406545751,2.32731
1336406605751,2.32336
1336406665751,2.30254
1336406725751,2.29715
1336406785751,2.29881
1336406845751,2.30233
1336406905751,2.29905
1336406965751,2.30124
1336407025751,2.31561
1336407085751,2.30972
1336407145751,2.29960
1336407205751,2.28483
1336407265751,2.27034
1336407325751,2.30458
1336407385751,2.28228
1336407445751,2.27916
1336407505751,2.27575
1336407565751,2.27187
1336407625751,2.29033
1336407685751,2.26736
1336407745751,2.28241
1336407805751,2.28869
1336407865751,2.26701
1336407925751,2.25662
1336407985751,2.28735
1336408045751,2.24805
1336408105751,2.26034
1336408165751,2.26209
1336408225751,2.24998
1336408285751,2.27544
1336408345751,2.20019
1336408405751,2.26318
1336408465751,2.25531
1336408525751,2.25676
1336408585751,2.24655
1336408645751,2.25225
1336408705751,2.25073
1336408765751,2.23988
1336408825751,2.24223
1336408885751,2.27236
1336408945751,2.27266
1336409005751,2.29351
1336409065751,2.24752
1336409125751,2.23862
1336409185751,2.24930
1336409245751,2.24433
1336409305751,2.23577
1336409365751,2.24887
1336409425751,2.24625
1336409485751,2.25899
1336409545751,2.25818
1336409605751,2.27043
1336409665751,2.22542
1336409725751,2.22540
1336409785751,2.19988
1336409845751,2.24076
1336409905751,2.22277
1336409965751,2.24636
1336410025761,2.21189
1336410085761,2.22984
1336410145761,2.22196
1336410205761,2.23118
1336410265761,2.22842
1336410325761,2.23268
1336410385761,2.21752
1336410445761,2.22388
1336410505761,2.23057
1336410565761,2.22550
1336410625761,2.21507
1336410685761,2.23884
1336410745761,2.21576
1336410805761,2.19919
1336410865761,2.20645
1336410925761,2.20848
1336410985761,2.22606
1336411045761,2.21350
1336411105761,2.21541
1336411165761,2.22164
1336411225761,2.20897
1336411285761,2.20106
1336411345761,2.19919
1336411405761,2.22742
1336411465761,2.23231
1336411525761,2.24100
1336411585761,2.24443
1336411645761,2.25378
1336411705761,2.25232
1336411765761,2.25412
1336411825761,2.22728
1336411885761,2.26094
1336411945761,2.24129
1336412005761,2.24117
1336412065761,2.21917
1336412125761,2.22827
1336412185761,2.25008
1336412245761,2.21328
1336412305761,2.21033
1336412365761,2.20992
1336412425761,2.22253
1336412485761,2.18501
1336412545761,2.21005
1336412605761,2.22079
1336412665761,2.20834
1336412725761,2.21495
1336412785761,2.20562
1336412845761,2.19018
1336412905761,2.18033
1336412965761,2.22428
1336413025761,2.18032
1336413085761,2.19174
1336413145761,2.20377
1336413205761,2.18582
1336413265761,2.19301
1336413325761,2.20187
1336413385761,2.20948
1336413445761,2.20432
1336413505761,2.19311
1336413565761,2.19684
1336413625771,2.19342
1336413685771,2.19477
1336413745771,2.19084
1336413805771,2.19096
1336413865771,2.20023
1336413925771,2.18316
1336413985771,2.18448
1336414045771,2.19207
1336414105771,2.19734
1336414165771,2.20513
1336414225771,2.18444
1336414285771,2.18233
1336414345771,2.18057
1336414405771,2.18219
1336414465771,2.19539
1336414525771,2.19521
1336414585771,2.18695
1336414645771,2.19409